Location: Ecklingerode
(51.5036°N, 10.3122°E)
Time: 14:42:26
(UTC+00:00)

GENESIS II - Pass Details

Date: 29 October 2020
Orbit: 490 x 536 km, 64.5° (Epoch: 28 November)

Event Time Altitude Azimuth Distance (km) Brightness Sun altitude
Rises 16:37:09 0° 218° (SW) 2,676 8.8 -6.9°
Reaches altitude 10° 16:39:20 10° 218° (SW) 1,791 7.8 -7.2°
Maximum altitude 16:43:21 83° 131° (SE) 548 4.3 -7.8°
Drops below altitude 10° 16:47:24 10° 44° (NE) 1,801 6.5 -8.4°
Enters shadow 16:48:06 - 44° (NE) 2,079 6.8 -8.5°
